Station Historical Data
Daily Summary for January 1, 2012 Units:  Metric    English   Both
« Previous Day
Next Day »
Daily Weekly Monthly Yearly Custom
  High: Low: Average:
Temperature: 16.6 °C 5.1 °C 11.8 °C
Dew Point: 14.8 °C -6.2 °C 4.5 °C
Humidity: 92% 43% 62%
Wind Speed: 32.2km/h 1.6km/h 12.1km/h
Wind Gust: 46.7km/h - -
Wind- - WSW
Pressure: 1026.6 hPa 1014.1 hPa -
Precipitation: 0 mm    
Historical Graphs
 
 
Tabular Data for January 1, 2012
Time Temperature Dew Point Pressure Wind Wind Speed Wind Gust Humidity Rainfall Rate (Hourly) Conditions
00:00 11.2 °C 3.7 °C 1016.8 hPa South 4.8 km/h 11.3 km/h 60% 0 mm
00:01 11.2 °C 3.7 °C 1016.8 hPa SE 9.7 km/h 9.7 km/h 60% 0 mm
00:06 11.3 °C 3.6 °C 1016.8 hPa SE 9.7 km/h 11.3 km/h 59% 0 mm
00:11 11.3 °C 3.8 °C 1016.8 hPa SE 8 km/h 11.3 km/h 60% 0 mm
00:16 11.2 °C 4 °C 1017.2 hPa SSE 8 km/h 8 km/h 61% 0 mm
00:21 11.2 °C 3.9 °C 1016.8 hPa SSE 8 km/h 9.7 km/h 61% 0 mm
00:26 11.2 °C 3.7 °C 1016.8 hPa SE 6.4 km/h 12.9 km/h 60% 0 mm
00:31 11.1 °C 3.9 °C 1016.5 hPa SE 8 km/h 12.9 km/h 61% 0 mm
00:36 11.1 °C 3.9 °C 1016.5 hPa SSE 8 km/h 11.3 km/h 61% 0 mm
00:41 11.1 °C 3.9 °C 1016.5 hPa SSE 6.4 km/h 11.3 km/h 61% 0 mm
00:46 10.9 °C 4.2 °C 1016.5 hPa SE 6.4 km/h 12.9 km/h 63% 0 mm
00:51 10.9 °C 4.2 °C 1016.5 hPa SE 11.3 km/h 14.5 km/h 63% 0 mm
00:56 11.1 °C 4.3 °C 1016.5 hPa SE 6.4 km/h 16.1 km/h 63% 0 mm
01:01 11.1 °C 4.5 °C 1016.1 hPa SSE 11.3 km/h 14.5 km/h 64% 0 mm
01:06 11.1 °C 4.6 °C 1016.1 hPa SE 9.7 km/h 16.1 km/h 64% 0 mm
01:11 11.2 °C 4.6 °C 1016.1 hPa SSE 12.9 km/h 12.9 km/h 64% 0 mm
01:16 11.4 °C 4.8 °C 1016.1 hPa SSE 11.3 km/h 14.5 km/h 64% 0 mm
01:21 11.6 °C 5.1 °C 1015.8 hPa South 6.4 km/h 17.7 km/h 64% 0 mm
01:26 11.8 °C 5.3 °C 1016.1 hPa SE 12.9 km/h 17.7 km/h 64% 0 mm
01:31 12.1 °C 5.4 °C 1015.8 hPa South 11.3 km/h 17.7 km/h 64% 0 mm
01:36 12.1 °C 5.5 °C 1015.8 hPa SSW 9.7 km/h 20.9 km/h 64% 0 mm
01:41 12.2 °C 5.6 °C 1015.8 hPa SSE 12.9 km/h 17.7 km/h 64% 0 mm
01:46 12.3 °C 5.9 °C 1015.8 hPa SSE 14.5 km/h 17.7 km/h 65% 0 mm
01:48 12.3 °C 5.9 °C 1015.8 hPa SSE 14.5 km/h 17.7 km/h 65% 0 mm
01:53 12.4 °C 6.3 °C 1015.5 hPa SSE 9.7 km/h 19.3 km/h 66% 0 mm
01:58 12.6 °C 6.2 °C 1015.5 hPa SSE 14.5 km/h 19.3 km/h 65% 0 mm
02:03 12.7 °C 6.5 °C 1015.5 hPa SE 16.1 km/h 17.7 km/h 66% 0 mm
02:08 12.8 °C 6.8 °C 1015.5 hPa South 11.3 km/h 20.9 km/h 67% 0 mm
02:13 12.9 °C 6.9 °C 1015.5 hPa SW 8 km/h 17.7 km/h 67% 0 mm
02:18 13.1 °C 7.1 °C 1015.5 hPa SSE 20.9 km/h 20.9 km/h 67% 0 mm
02:23 13.2 °C 7.4 °C 1015.8 hPa SSE 9.7 km/h 12.9 km/h 68% 0 mm
02:28 13.3 °C 7.6 °C 1015.8 hPa SW 12.9 km/h 17.7 km/h 68% 0 mm
02:33 13.4 °C 7.8 °C 1015.5 hPa South 11.3 km/h 16.1 km/h 69% 0 mm
02:38 13.4 °C 8.1 °C 1015.5 hPa SSE 20.9 km/h 20.9 km/h 70% 0 mm
02:43 13.4 °C 8.3 °C 1015.5 hPa SSW 19.3 km/h 20.9 km/h 71% 0 mm
02:48 13.5 °C 8.3 °C 1015.5 hPa SSE 14.5 km/h 17.7 km/h 71% 0 mm
02:53 13.6 °C 8.4 °C 1015.8 hPa SSE 16.1 km/h 16.1 km/h 71% 0 mm
02:58 13.7 °C 8.6 °C 1015.5 hPa South 14.5 km/h 16.1 km/h 71% 0 mm
03:03 13.7 °C 8.6 °C 1015.8 hPa SSE 9.7 km/h 16.1 km/h 71% 0 mm
03:08 13.7 °C 8.7 °C 1015.8 hPa South 9.7 km/h 9.7 km/h 72% 0 mm
03:13 13.6 °C 8.7 °C 1015.5 hPa SE 8 km/h 17.7 km/h 72% 0 mm
03:18 13.6 °C 8.8 °C 1015.5 hPa SSE 12.9 km/h 17.7 km/h 73% 0 mm
03:23 13.4 °C 8.9 °C 1015.5 hPa South 4.8 km/h 17.7 km/h 74% 0 mm
03:28 13.4 °C 9.1 °C 1015.5 hPa SSE 14.5 km/h 17.7 km/h 75% 0 mm
03:33 13.3 °C 9 °C 1015.5 hPa South 9.7 km/h 14.5 km/h 75% 0 mm
03:38 13.4 °C 9.3 °C 1015.5 hPa SSW 8 km/h 12.9 km/h 76% 0 mm
03:43 13.4 °C 9.3 °C 1015.1 hPa SSE 6.4 km/h 14.5 km/h 76% 0 mm
03:48 13.4 °C 9.4 °C 1015.5 hPa SSE 11.3 km/h 12.9 km/h 77% 0 mm
03:53 13.4 °C 9.6 °C 1015.5 hPa South 6.4 km/h 12.9 km/h 78% 0 mm
03:58 13.4 °C 9.7 °C 1015.1 hPa South 6.4 km/h 9.7 km/h 78% 0 mm
04:03 13.5 °C 9.9 °C 1015.1 hPa South 11.3 km/h 12.9 km/h 79% 0 mm
04:08 13.6 °C 10.2 °C 1015.1 hPa SE 8 km/h 12.9 km/h 80% 0 mm
04:13 13.7 °C 10.4 °C 1015.1 hPa SSE 8 km/h 12.9 km/h 81% 0 mm
04:19 13.8 °C 10.6 °C 1015.1 hPa SSE 14.5 km/h 14.5 km/h 81% 0 mm
04:24 13.8 °C 10.8 °C 1015.1 hPa SSW 8 km/h 9.7 km/h 82% 0 mm
04:29 13.9 °C 10.9 °C 1015.1 hPa SSW 11.3 km/h 12.9 km/h 82% 0 mm
04:34 14.1 °C 11.2 °C 1015.1 hPa WSW 9.7 km/h 11.3 km/h 83% 0 mm
04:39 14.1 °C 11.2 °C 1015.1 hPa SSE 8 km/h 8 km/h 83% 0 mm
04:44 14.1 °C 11.4 °C 1014.8 hPa South 6.4 km/h 11.3 km/h 84% 0 mm
04:49 14.2 °C 11.7 °C 1014.8 hPa SSE 4.8 km/h 14.5 km/h 85% 0 mm
04:54 14.1 °C 11.6 °C 1014.8 hPa SSE 8 km/h 9.7 km/h 85% 0 mm
04:59 14.2 °C 11.8 °C 1014.8 hPa SSW 6.4 km/h 9.7 km/h 86% 0 mm
05:04 14.4 °C 12.3 °C 1014.8 hPa SSE 11.3 km/h 12.9 km/h 87% 0 mm
05:09 14.6 °C 12.5 °C 1014.8 hPa SW 11.3 km/h 17.7 km/h 87% 0 mm
05:14 14.8 °C 12.7 °C 1014.8 hPa SW 4.8 km/h 17.7 km/h 87% 0 mm
05:19 14.9 °C 12.8 °C 1014.8 hPa SW 6.4 km/h 17.7 km/h 87% 0 mm
05:24 14.9 °C 12.8 °C 1014.8 hPa SSW 11.3 km/h 16.1 km/h 87% 0 mm
05:29 14.9 °C 12.8 °C 1014.8 hPa SW 8 km/h 16.1 km/h 87% 0 mm
05:34 14.8 °C 12.9 °C 1014.8 hPa SSW 9.7 km/h 11.3 km/h 88% 0 mm
05:39 14.9 °C 12.9 °C 1014.8 hPa SSE 4.8 km/h 11.3 km/h 88% 0 mm
05:44 15 °C 13.1 °C 1014.8 hPa SSW 9.7 km/h 14.5 km/h 88% 0 mm
05:49 15.1 °C 13.1 °C 1014.4 hPa SW 6.4 km/h 12.9 km/h 88% 0 mm
05:54 15 °C 13.1 °C 1014.4 hPa South 11.3 km/h 12.9 km/h 88% 0 mm
05:59 14.9 °C 13.1 °C 1014.4 hPa SSW 6.4 km/h 14.5 km/h 89% 0 mm
06:04 14.9 °C 13.1 °C 1014.4 hPa South 11.3 km/h 14.5 km/h 89% 0 mm
06:09 14.8 °C 13.2 °C 1014.4 hPa SSW 9.7 km/h 14.5 km/h 90% 0 mm
06:14 14.8 °C 13.2 °C 1014.4 hPa SSW 6.4 km/h 12.9 km/h 90% 0 mm
06:19 14.8 °C 13.2 °C 1014.4 hPa South 9.7 km/h 16.1 km/h 90% 0 mm
06:24 14.7 °C 13.3 °C 1014.4 hPa South 9.7 km/h 16.1 km/h 91% 0 mm
06:29 14.7 °C 13.2 °C 1014.1 hPa ESE 11.3 km/h 11.3 km/h 91% 0 mm
06:34 14.6 °C 13.2 °C 1014.1 hPa SSE 12.9 km/h 14.5 km/h 91% 0 mm
06:39 14.6 °C 13.1 °C 1014.4 hPa South 9.7 km/h 16.1 km/h 91% 0 mm
06:44 14.6 °C 13.3 °C 1014.4 hPa South 11.3 km/h 12.9 km/h 92% 0 mm
06:49 14.7 °C 13.4 °C 1014.1 hPa South 11.3 km/h 11.3 km/h 92% 0 mm
06:54 14.8 °C 13.5 °C 1014.1 hPa SE 8 km/h 14.5 km/h 92% 0 mm
06:59 14.8 °C 13.6 °C 1014.1 hPa South 6.4 km/h 17.7 km/h 92% 0 mm
07:04 14.8 °C 13.6 °C 1014.1 hPa SSE 8 km/h 12.9 km/h 92% 0 mm
07:09 14.9 °C 13.6 °C 1014.1 hPa SSE 8 km/h 14.5 km/h 92% 0 mm
07:14 14.9 °C 13.7 °C 1014.1 hPa SSE 12.9 km/h 14.5 km/h 92% 0 mm
07:20 15.1 °C 13.8 °C 1014.4 hPa SW 11.3 km/h 14.5 km/h 92% 0 mm
07:25 15.1 °C 13.6 °C 1014.1 hPa SSW 6.4 km/h 11.3 km/h 91% 0 mm
07:30 15.1 °C 13.8 °C 1014.1 hPa South 12.9 km/h 12.9 km/h 92% 0 mm
07:35 15.3 °C 14.1 °C 1014.4 hPa SSW 4.8 km/h 20.9 km/h 92% 0 mm
07:40 15.3 °C 13.9 °C 1014.4 hPa SW 12.9 km/h 16.1 km/h 91% 0 mm
07:45 15.6 °C 14.3 °C 1014.4 hPa WSW 16.1 km/h 17.7 km/h 92% 0 mm
07:50 15.9 °C 14.4 °C 1014.4 hPa SW 22.5 km/h 25.7 km/h 91% 0 mm
07:55 16.3 °C 14.7 °C 1014.8 hPa SW 32.2 km/h 32.2 km/h 90% 0 mm
08:00 16.6 °C 14.8 °C 1014.8 hPa West 11.3 km/h 24.1 km/h 89% 0 mm
08:05 16.6 °C 14.4 °C 1015.1 hPa WSW 24.1 km/h 24.1 km/h 87% 0 mm
08:10 16.6 °C 14 °C 1015.1 hPa West 27.4 km/h 35.4 km/h 85% 0 mm
08:15 16.6 °C 13.7 °C 1015.5 hPa West 19.3 km/h 22.5 km/h 83% 0 mm
08:20 16.5 °C 13.4 °C 1015.5 hPa WSW 25.7 km/h 32.2 km/h 82% 0 mm
08:25 16.5 °C 13.2 °C 1015.8 hPa WSW 22.5 km/h 27.4 km/h 81% 0 mm
08:30 16.4 °C 12.9 °C 1015.8 hPa West 12.9 km/h 25.7 km/h 80% 0 mm
08:35 16.2 °C 12.8 °C 1015.8 hPa WSW 17.7 km/h 25.7 km/h 80% 0 mm
08:40 16 °C 12.7 °C 1015.8 hPa West 14.5 km/h 14.5 km/h 81% 0 mm
08:45 15.9 °C 12.7 °C 1016.1 hPa West 12.9 km/h 20.9 km/h 81% 0 mm
08:50 15.9 °C 12.7 °C 1016.1 hPa WNW 17.7 km/h 29 km/h 81% 0 mm
08:55 15.9 °C 12.7 °C 1016.5 hPa WSW 25.7 km/h 35.4 km/h 81% 0 mm
09:00 15.8 °C 12.6 °C 1016.5 hPa West 16.1 km/h 22.5 km/h 81% 0 mm
09:05 15.7 °C 12.4 °C 1016.8 hPa WSW 12.9 km/h 32.2 km/h 81% 0 mm
09:10 15.5 °C 11.9 °C 1016.8 hPa WSW 22.5 km/h 37 km/h 79% 0 mm
09:15 15.5 °C 11.3 °C 1017.2 hPa West 19.3 km/h 32.2 km/h 76% 0 mm
09:20 15.4 °C 11.2 °C 1017.2 hPa West 16.1 km/h 33.8 km/h 76% 0 mm
09:25 15.2 °C 10.8 °C 1017.5 hPa West 17.7 km/h 33.8 km/h 75% 0 mm
09:30 15.1 °C 10.4 °C 1017.5 hPa West 19.3 km/h 32.2 km/h 74% 0 mm
09:35 14.8 °C 9.6 °C 1017.8 hPa WNW 16.1 km/h 46.7 km/h 71% 0 mm
09:40 14.6 °C 9 °C 1018.2 hPa West 12.9 km/h 29 km/h 69% 0 mm
09:45 14.6 °C 8.3 °C 1018.2 hPa West 19.3 km/h 27.4 km/h 66% 0 mm
09:50 14.7 °C 8 °C 1018.5 hPa West 24.1 km/h 30.6 km/h 64% 0 mm
09:55 14.7 °C 6.7 °C 1018.5 hPa West 20.9 km/h 37 km/h 59% 0 mm
10:00 14.6 °C 6.9 °C 1018.5 hPa WNW 20.9 km/h 33.8 km/h 60% 0 mm
10:05 14.6 °C 6.9 °C 1018.8 hPa SSE 8 km/h 25.7 km/h 60% 0 mm
10:10 14.4 °C 5.8 °C 1019.2 hPa WNW 27.4 km/h 40.2 km/h 56% 0 mm
10:15 14.2 °C 3.9 °C 1018.8 hPa WSW 20.9 km/h 30.6 km/h 50% 0 mm
10:20 13.9 °C 3.4 °C 1019.2 hPa WNW 19.3 km/h 37 km/h 49% 0 mm
10:25 13.9 °C 3.9 °C 1019.2 hPa West 11.3 km/h 32.2 km/h 51% 0 mm
10:31 13.9 °C 4.3 °C 1019.5 hPa SSW 9.7 km/h 27.4 km/h 52% 0 mm
10:35 13.9 °C 4 °C 1019.5 hPa WNW 19.3 km/h 27.4 km/h 51% 0 mm
10:36 13.9 °C 4 °C 1019.5 hPa West 14.5 km/h 27.4 km/h 51% 0 mm
10:41 13.7 °C 4.1 °C 1019.5 hPa WNW 16.1 km/h 25.7 km/h 52% 0 mm
10:46 13.8 °C 4.4 °C 1019.9 hPa WNW 29 km/h 29 km/h 53% 0 mm
10:51 13.4 °C 3.5 °C 1019.9 hPa WNW 17.7 km/h 38.6 km/h 51% 0 mm
10:56 13.2 °C 3.3 °C 1019.9 hPa NW 25.7 km/h 32.2 km/h 51% 0 mm
11:01 13 °C 2.6 °C 1019.9 hPa WNW 20.9 km/h 35.4 km/h 49% 0 mm
11:06 12.9 °C 2.7 °C 1020.2 hPa West 12.9 km/h 35.4 km/h 50% 0 mm
11:11 12.9 °C 3.1 °C 1020.2 hPa West 12.9 km/h 27.4 km/h 51% 0 mm
11:16 13.1 °C 2.9 °C 1020.2 hPa WNW 4.8 km/h 29 km/h 50% 0 mm
11:21 12.9 °C 2.8 °C 1020.2 hPa West 22.5 km/h 30.6 km/h 50% 0 mm
11:26 13 °C 3.1 °C 1020.2 hPa West 12.9 km/h 24.1 km/h 51% 0 mm
11:31 13 °C 2.6 °C 1020.2 hPa WNW 27.4 km/h 29 km/h 49% 0 mm
11:36 13 °C 2.8 °C 1020.5 hPa WNW 14.5 km/h 24.1 km/h 50% 0 mm
11:41 12.9 °C 2.7 °C 1020.5 hPa West 17.7 km/h 27.4 km/h 50% 0 mm
11:46 13 °C 3.4 °C 1020.5 hPa WNW 14.5 km/h 24.1 km/h 52% 0 mm
11:51 12.8 °C 3.2 °C 1020.5 hPa WNW 19.3 km/h 30.6 km/h 52% 0 mm
11:56 12.8 °C 3.2 °C 1020.5 hPa WNW 17.7 km/h 29 km/h 52% 0 mm
12:01 12.9 °C 3.6 °C 1020.5 hPa West 20.9 km/h 25.7 km/h 53% 0 mm
12:06 13.1 °C 3.4 °C 1020.5 hPa WNW 22.5 km/h 27.4 km/h 52% 0 mm
12:11 12.7 °C 2.8 °C 1020.5 hPa WNW 14.5 km/h 30.6 km/h 51% 0 mm
12:16 12.7 °C 3.1 °C 1020.5 hPa WNW 24.1 km/h 25.7 km/h 52% 0 mm
12:21 13 °C 3.4 °C 1020.5 hPa WNW 17.7 km/h 24.1 km/h 52% 0 mm
12:26 13.2 °C 3.6 °C 1020.5 hPa WNW 14.5 km/h 17.7 km/h 52% 0 mm
12:31 13.1 °C 3.7 °C 1020.5 hPa WNW 8 km/h 19.3 km/h 53% 0 mm
12:37 13.2 °C 3.6 °C 1020.5 hPa WNW 22.5 km/h 24.1 km/h 52% 0 mm
12:42 13.2 °C 3.6 °C 1020.2 hPa West 19.3 km/h 25.7 km/h 52% 0 mm
12:47 13 °C 3.1 °C 1019.9 hPa WNW 11.3 km/h 27.4 km/h 51% 0 mm
12:52 13.2 °C 3.8 °C 1019.9 hPa WNW 11.3 km/h 22.5 km/h 53% 0 mm
12:57 13 °C 3.4 °C 1020.2 hPa West 19.3 km/h 30.6 km/h 52% 0 mm
13:02 12.7 °C 3.4 °C 1019.9 hPa West 16.1 km/h 32.2 km/h 53% 0 mm
13:07 12.7 °C 3.6 °C 1019.9 hPa West 14.5 km/h 27.4 km/h 54% 0 mm
13:12 12.8 °C 3.2 °C 1019.9 hPa WNW 14.5 km/h 27.4 km/h 52% 0 mm
13:17 12.9 °C 3.3 °C 1019.9 hPa West 24.1 km/h 24.1 km/h 52% 0 mm
13:22 12.8 °C 3.2 °C 1019.9 hPa WNW 12.9 km/h 20.9 km/h 52% 0 mm
13:27 13.1 °C 3.9 °C 1019.9 hPa WNW 12.9 km/h 19.3 km/h 54% 0 mm
13:32 13.1 °C 3.4 °C 1019.9 hPa WNW 14.5 km/h 20.9 km/h 52% 0 mm
13:37 13.2 °C 3.8 °C 1019.9 hPa West 17.7 km/h 19.3 km/h 53% 0 mm
13:42 13 °C 3.7 °C 1020.2 hPa WNW 11.3 km/h 30.6 km/h 53% 0 mm
13:47 13.1 °C 3.8 °C 1020.2 hPa West 22.5 km/h 22.5 km/h 53% 0 mm
13:52 13.1 °C 3.5 °C 1020.2 hPa WNW 8 km/h 22.5 km/h 52% 0 mm
13:57 13.1 °C 2.9 °C 1020.5 hPa WNW 16.1 km/h 29 km/h 50% 0 mm
14:02 12.9 °C 3.3 °C 1020.5 hPa WNW 14.5 km/h 20.9 km/h 52% 0 mm
14:08 12.9 °C 3.6 °C 1020.2 hPa WSW 11.3 km/h 20.9 km/h 53% 0 mm
14:13 13 °C 3.1 °C 1020.2 hPa NW 8 km/h 20.9 km/h 51% 0 mm
14:18 13.1 °C 3.2 °C 1020.2 hPa West 16.1 km/h 29 km/h 51% 0 mm
14:23 12.9 °C 3.1 °C 1020.2 hPa NW 6.4 km/h 29 km/h 51% 0 mm
14:28 13 °C 2.6 °C 1020.2 hPa WNW 17.7 km/h 22.5 km/h 49% 0 mm
14:33 13.1 °C 2.6 °C 1020.2 hPa West 9.7 km/h 20.9 km/h 49% 0 mm
14:38 13.2 °C 2.7 °C 1020.2 hPa West 11.3 km/h 16.1 km/h 49% 0 mm
14:43 13.4 °C 2.4 °C 1020.5 hPa WNW 20.9 km/h 25.7 km/h 47% 0 mm
14:48 13.3 °C 2.3 °C 1020.2 hPa NW 8 km/h 19.3 km/h 47% 0 mm
14:53 13.3 °C 1.6 °C 1020.5 hPa WNW 11.3 km/h 25.7 km/h 45% 0 mm
14:58 13.2 °C 2.4 °C 1020.5 hPa NW 9.7 km/h 19.3 km/h 48% 0 mm
15:03 13.2 °C 2.4 °C 1020.5 hPa WNW 20.9 km/h 20.9 km/h 48% 0 mm
15:08 13.2 °C 2.7 °C 1020.5 hPa West 11.3 km/h 17.7 km/h 49% 0 mm
15:13 13.3 °C 2.5 °C 1020.5 hPa WNW 8 km/h 16.1 km/h 48% 0 mm
15:18 13.2 °C 2.1 °C 1020.9 hPa WNW 12.9 km/h 25.7 km/h 47% 0 mm
15:23 13 °C 1.9 °C 1020.9 hPa West 12.9 km/h 24.1 km/h 47% 0 mm
15:28 13 °C 2.6 °C 1020.9 hPa WNW 9.7 km/h 19.3 km/h 49% 0 mm
15:33 13.1 °C 2.3 °C 1021.2 hPa WNW 22.5 km/h 29 km/h 48% 0 mm
15:38 13 °C 2.3 °C 1021.2 hPa West 16.1 km/h 24.1 km/h 48% 0 mm
15:43 12.6 °C 1.6 °C 1021.2 hPa WNW 11.3 km/h 27.4 km/h 47% 0 mm
15:48 12.6 °C 1 °C 1021.6 hPa NW 16.1 km/h 22.5 km/h 45% 0 mm
15:53 12.6 °C 0.4 °C 1021.6 hPa NW 14.5 km/h 30.6 km/h 43% 0 mm
15:58 12.6 °C 0.7 °C 1021.6 hPa WNW 12.9 km/h 27.4 km/h 44% 0 mm
16:03 12.4 °C 1.2 °C 1021.6 hPa NW 9.7 km/h 22.5 km/h 46% 0 mm
16:08 12.3 °C 0.1 °C 1021.9 hPa WNW 24.1 km/h 27.4 km/h 43% 0 mm
16:13 12.3 °C 0.1 °C 1021.9 hPa NW 12.9 km/h 20.9 km/h 43% 0 mm
16:18 12.3 °C 0.1 °C 1021.9 hPa NW 12.9 km/h 22.5 km/h 43% 0 mm
16:23 12.4 °C 0.5 °C 1022.2 hPa NW 14.5 km/h 20.9 km/h 44% 0 mm
16:28 12.3 °C 0.4 °C 1022.2 hPa NW 19.3 km/h 19.3 km/h 44% 0 mm
16:33 12.3 °C 0.7 °C 1022.2 hPa NW 14.5 km/h 19.3 km/h 45% 0 mm
16:39 12.2 °C 1.2 °C 1022.6 hPa NW 20.9 km/h 24.1 km/h 47% 0 mm
16:44 12 °C 1.3 °C 1022.6 hPa West 9.7 km/h 25.7 km/h 48% 0 mm
16:49 11.9 °C 1.2 °C 1022.6 hPa WNW 19.3 km/h 20.9 km/h 48% 0 mm
16:54 11.7 °C 1.1 °C 1022.6 hPa West 20.9 km/h 30.6 km/h 48% 0 mm
16:59 11.6 °C 0.9 °C 1022.9 hPa WNW 20.9 km/h 25.7 km/h 48% 0 mm
17:04 11.4 °C 0.6 °C 1022.9 hPa WNW 17.7 km/h 22.5 km/h 47% 0 mm
17:09 11.3 °C 0.1 °C 1022.9 hPa WNW 17.7 km/h 22.5 km/h 46% 0 mm
17:14 11.3 °C 0.1 °C 1022.9 hPa WNW 11.3 km/h 22.5 km/h 46% 0 mm
17:19 11.2 °C 0.3 °C 1023.2 hPa NW 14.5 km/h 22.5 km/h 47% 0 mm
17:24 11.1 °C 0.2 °C 1023.2 hPa WNW 14.5 km/h 25.7 km/h 47% 0 mm
17:29 10.9 °C 0.4 °C 1023.2 hPa NW 14.5 km/h 27.4 km/h 48% 0 mm
17:34 10.7 °C 0.2 °C 1023.2 hPa West 16.1 km/h 22.5 km/h 48% 0 mm
17:39 10.5 °C 0.2 °C 1023.2 hPa WNW 8 km/h 16.1 km/h 49% 0 mm
17:40 10.4 °C 0.2 °C 1023.2 hPa WNW 4.8 km/h 16.1 km/h 49% 0 mm
17:45 10.2 °C 0.2 °C 1023.2 hPa WNW 6.4 km/h 14.5 km/h 50% 0 mm
17:50 10.1 °C 0.1 °C 1023.2 hPa WNW 12.9 km/h 17.7 km/h 50% 0 mm
17:55 9.9 °C -0.1 °C 1023.6 hPa WNW 16.1 km/h 16.1 km/h 50% 0 mm
18:00 9.7 °C 0.1 °C 1023.6 hPa WNW 9.7 km/h 12.9 km/h 51% 0 mm
18:05 9.4 °C 0.1 °C 1023.6 hPa WNW 6.4 km/h 11.3 km/h 52% 0 mm
18:10 9.4 °C 0.3 °C 1023.6 hPa West 11.3 km/h 17.7 km/h 53% 0 mm
18:15 9.3 °C 0.2 °C 1023.6 hPa WNW 4.8 km/h 9.7 km/h 53% 0 mm
18:20 9 °C 0.2 °C 1023.9 hPa WNW 6.4 km/h 11.3 km/h 54% 0 mm
18:25 8.9 °C 0.3 °C 1023.9 hPa West 9.7 km/h 11.3 km/h 55% 0 mm
18:30 8.9 °C 0.2 °C 1024.3 hPa West 14.5 km/h 17.7 km/h 54% 0 mm
18:35 8.9 °C 0.2 °C 1024.3 hPa WNW 9.7 km/h 17.7 km/h 54% 0 mm
18:40 8.9 °C 0.1 °C 1024.3 hPa WNW 11.3 km/h 14.5 km/h 54% 0 mm
18:45 8.8 °C -0.2 °C 1024.3 hPa NW 16.1 km/h 16.1 km/h 53% 0 mm
18:46 8.8 °C -0.3 °C 1024.3 hPa West 11.3 km/h 16.1 km/h 53% 0 mm
18:51 8.7 °C -0.3 °C 1024.6 hPa WNW 9.7 km/h 16.1 km/h 53% 0 mm
18:56 8.7 °C -0.3 °C 1024.6 hPa WNW 9.7 km/h 16.1 km/h 53% 0 mm
19:01 8.7 °C -0.3 °C 1024.6 hPa WNW 11.3 km/h 12.9 km/h 53% 0 mm
19:06 8.6 °C -0.2 °C 1024.6 hPa WNW 8 km/h 14.5 km/h 54% 0 mm
19:11 8.6 °C -0.2 °C 1024.6 hPa WNW 12.9 km/h 16.1 km/h 54% 0 mm
19:16 8.4 °C -0.4 °C 1024.6 hPa WNW 9.7 km/h 16.1 km/h 54% 0 mm
19:21 8.3 °C -0.4 °C 1024.6 hPa WNW 9.7 km/h 14.5 km/h 54% 0 mm
19:26 8.2 °C -0.6 °C 1024.9 hPa WNW 6.4 km/h 14.5 km/h 54% 0 mm
19:31 8.2 °C -0.6 °C 1024.9 hPa NW 6.4 km/h 17.7 km/h 54% 0 mm
19:36 8.1 °C -0.7 °C 1024.9 hPa WNW 9.7 km/h 14.5 km/h 54% 0 mm
19:41 8 °C -0.5 °C 1024.9 hPa NW 4.8 km/h 12.9 km/h 55% 0 mm
19:46 7.8 °C -0.6 °C 1024.9 hPa NW 6.4 km/h 16.1 km/h 55% 0 mm
19:51 7.8 °C -0.6 °C 1024.9 hPa WNW 12.9 km/h 16.1 km/h 55% 0 mm
19:56 7.8 °C -0.9 °C 1024.9 hPa WNW 11.3 km/h 17.7 km/h 54% 0 mm
20:01 7.8 °C -0.9 °C 1024.9 hPa WNW 4.8 km/h 12.9 km/h 54% 0 mm
20:06 7.7 °C -1 °C 1024.9 hPa WNW 14.5 km/h 17.7 km/h 54% 0 mm
20:11 7.6 °C -1.1 °C 1025.3 hPa WNW 6.4 km/h 12.9 km/h 54% 0 mm
20:16 7.5 °C -0.9 °C 1025.3 hPa WNW 6.4 km/h 9.7 km/h 55% 0 mm
20:21 7.3 °C -0.9 °C 1025.3 hPa WNW 4.8 km/h 8 km/h 56% 0 mm
20:26 7.1 °C -1.1 °C 1025.3 hPa West 8 km/h 8 km/h 56% 0 mm
20:31 7 °C -0.9 °C 1025.6 hPa WNW 3.2 km/h 6.4 km/h 57% 0 mm
20:37 6.8 °C -1.1 °C 1025.3 hPa West 6.4 km/h 6.4 km/h 57% 0 mm
20:42 6.7 °C -1 °C 1025.6 hPa WNW 3.2 km/h 6.4 km/h 58% 0 mm
20:47 6.6 °C -1.1 °C 1025.6 hPa WNW 6.4 km/h 8 km/h 58% 0 mm
20:52 6.6 °C -1.1 °C 1025.6 hPa WNW 4.8 km/h 9.7 km/h 58% 0 mm
20:57 6.5 °C -1.2 °C 1025.6 hPa WNW 4.8 km/h 8 km/h 58% 0 mm
21:02 6.4 °C -1.1 °C 1025.6 hPa West 3.2 km/h 6.4 km/h 59% 0 mm
21:07 6.2 °C -1.2 °C 1026 hPa WNW 3.2 km/h 6.4 km/h 59% 0 mm
21:12 6.2 °C -1.2 °C 1026 hPa WNW 3.2 km/h 6.4 km/h 59% 0 mm
21:17 6 °C -1.4 °C 1025.6 hPa NW 6.4 km/h 8 km/h 59% 0 mm
21:22 6.1 °C -1.6 °C 1025.6 hPa WNW 6.4 km/h 8 km/h 58% 0 mm
21:27 6.1 °C -1.6 °C 1025.6 hPa West 3.2 km/h 8 km/h 58% 0 mm
21:32 6.1 °C -1.6 °C 1025.6 hPa West 6.4 km/h 9.7 km/h 58% 0 mm
21:37 6 °C -1.6 °C 1025.6 hPa West 4.8 km/h 11.3 km/h 58% 0 mm
21:42 5.9 °C -1.7 °C 1026 hPa WNW 3.2 km/h 9.7 km/h 58% 0 mm
21:47 5.8 °C -1.8 °C 1026 hPa WNW 8 km/h 8 km/h 58% 0 mm
21:52 5.8 °C -1.8 °C 1026 hPa West 3.2 km/h 9.7 km/h 58% 0 mm
21:57 5.7 °C -1.9 °C 1026 hPa West 3.2 km/h 6.4 km/h 58% 0 mm
22:02 5.6 °C -2 °C 1026 hPa WNW 3.2 km/h 6.4 km/h 58% 0 mm
22:07 5.5 °C -2.1 °C 1026 hPa WNW 1.6 km/h 4.8 km/h 58% 0 mm
22:12 5.4 °C -2.2 °C 1026 hPa West 3.2 km/h 4.8 km/h 58% 0 mm
22:17 5.3 °C -2.1 °C 1026 hPa West 1.6 km/h 4.8 km/h 59% 0 mm
22:22 5.2 °C -2.3 °C 1026 hPa West 3.2 km/h 4.8 km/h 58% 0 mm
22:27 5.2 °C -2.3 °C 1026 hPa West 1.6 km/h 6.4 km/h 58% 0 mm
22:32 5.2 °C -2.6 °C 1026 hPa WNW 3.2 km/h 12.9 km/h 57% 0 mm
22:37 5.3 °C -2.7 °C 1026 hPa WNW 11.3 km/h 12.9 km/h 56% 0 mm
22:42 5.4 °C -3.2 °C 1026 hPa WNW 6.4 km/h 11.3 km/h 54% 0 mm
22:47 5.6 °C -3.5 °C 1026 hPa WNW 8 km/h 17.7 km/h 52% 0 mm
22:52 5.7 °C -3.9 °C 1026.3 hPa WNW 6.4 km/h 19.3 km/h 50% 0 mm
22:57 5.7 °C -4.2 °C 1026.3 hPa WNW 9.7 km/h 20.9 km/h 49% 0 mm
23:02 5.8 °C -4.3 °C 1026.3 hPa WNW 14.5 km/h 17.7 km/h 48% 0 mm
23:07 5.8 °C -4.7 °C 1026.6 hPa WNW 9.7 km/h 17.7 km/h 47% 0 mm
23:12 5.7 °C -4.7 °C 1026.6 hPa WNW 14.5 km/h 14.5 km/h 47% 0 mm
23:18 5.6 °C -4.9 °C 1026.6 hPa WNW 9.7 km/h 12.9 km/h 47% 0 mm
23:23 5.5 °C -4.9 °C 1026.6 hPa NW 6.4 km/h 19.3 km/h 47% 0 mm
23:28 5.4 °C -5.3 °C 1026.6 hPa WNW 16.1 km/h 20.9 km/h 46% 0 mm
23:33 5.4 °C -5.9 °C 1026.6 hPa NW 17.7 km/h 20.9 km/h 44% 0 mm
23:38 5.4 °C -5.8 °C 1026.6 hPa NW 12.9 km/h 19.3 km/h 44% 0 mm
23:43 5.3 °C -5.9 °C 1026.6 hPa WNW 17.7 km/h 25.7 km/h 44% 0 mm
23:48 5.4 °C -6.2 °C 1026.6 hPa NW 9.7 km/h 24.1 km/h 43% 0 mm
23:53 5.2 °C -6.1 °C 1026.6 hPa WNW 11.3 km/h 19.3 km/h 44% 0 mm
23:58 5.1 °C -6.2 °C 1026.6 hPa WNW 6.4 km/h 17.7 km/h 44% 0 mm
Compliments of Weather Underground